User: anonymous   Login
Location: Rancho Del Sol Observatory
(38.7214°N, 120.6350°W)
Time: 14:16:47
(UTC-07:00)
Language:

Cosmos 2221 Rocket - Orbit

View from above orbital plane
View from above orbital plane
View from above satellite
View from above satellite

Ground track
Ground track

The orbit data is extracted from the following two-line orbital elements,

1 22237U 92080B   14296.08939817  .00000614  00000-0  81741-4 0  4757
2 22237 082.5099 298.1049 0021405 128.8720 292.5916 14.77928578180421
Epoch (UTC): 23 October 2014 02:08:44
Eccentricity: 0.0021405
inclination: 82.5099°
perigee height: 621 km
apogee height: 651 km
right ascension of ascending node: 298.1049°
argument of perigee: 128.8720°
revolutions per day: 14.77928578
mean anomaly at epoch: 292.5916°
orbit number at epoch: 18042

The dashed part of the orbit path shows where the satellite is in the earth's shadow,  

DLR